Regional Weather Roundup
Issued by NWS

Home | Current Version | Previous Version | Graphics & Text | Print | Product List | Glossary On
Versions: 1 2 3 4 5 6 7 8 9 10 11 12 13 14 15 16 17 18 19 20 21 22 23 24 25 26 27 28 29 30 31 32 33 34 35 36 37 38 39 40 41 42 43 44 45 46 47 48 49 50
000
ASUS43 KLMK 181310
RWRKY
KENTUCKY REGIONAL WEATHER ROUNDUP
NATIONAL WEATHER SERVICE LOUISVILLE KY
900 AM EDT FRI APR 18 2014

NOTE "FAIR" INDICATES FEW OR NO CLOUDS BELOW 12,000 FEET
WITH NO SIGNIFICANT WEATHER AND/OR OBSTRUCTIONS TO VISIBILITY.

KYZ001>023-026-027-061>063-070>075-181400-
WESTERN AND SOUTH CENTRAL KENTUCKY

CITY           SKY/WX    TMP DP  RH WIND       PRES   REMARKS
PADUCAH        CLOUDY    53  45  74 CALM      30.27R
HENDERSON      MOSUNNY   48  43  81 CALM      30.28R
OWENSBORO      MOSUNNY   51  43  74 CALM      30.29R
HOPKINSVILLE   PTSUNNY   54  45  71 SE6       30.28R
BOWLING GREEN  PTSUNNY   51  45  79 CALM      30.31R
GLASGOW        CLOUDY    51  46  80 CALM      30.32R
$$

KYZ024-025-028>034-038-045-046-053-181400-
NORTH CENTRAL KENTUCKY

CITY           SKY/WX    TMP DP  RH WIND       PRES   REMARKS
LOUISVILLE/SDF PTSUNNY   51  41  68 CALM      30.30S
LOUISVILLE/LOU PTSUNNY   53  41  63 CALM      30.31R
FORT KNOX      PTSUNNY   50  40  69 CALM      30.29R
$$

KYZ035>037-039>044-047>052-055>060-089>105-181400-
NORTHEAST KENTUCKY

CITY           SKY/WX    TMP DP  RH WIND       PRES   REMARKS
LEXINGTON      CLOUDY    54  40  59 S7        30.32R
COVINGTON      PTSUNNY   53  41  63 CALM      30.29S
FRANKFORT      PTSUNNY   49  43  80 CALM      30.31R
$$

KYZ054-064>069-076>088-106>120-181400-
SOUTHEAST KENTUCKY

CITY           SKY/WX    TMP DP  RH WIND       PRES   REMARKS
JACKSON        CLOUDY    54  27  35 S3        30.34R
LONDON         CLOUDY    52  38  58 CALM      30.34R
SOMERSET       CLOUDY    52  39  62 CALM      30.35R
MIDDLESBORO    CLOUDY    49  39  69 CALM      30.36S
MONTICELLO     CLOUDY    54  46  74 CALM      30.35R
$$




USA.gov is the U.S. government's official web portal to all federal, state and local government web resources and services.